Flag for France Weather past 2 weeks in Bastia, Corsica, France

Now
68 °F

Light rain. Broken clouds.


Feels Like: 68 °F
Forecast: 64 / 76 °F
Wind: 5 mph from East

Location: Bastia Airport

Current Time: Jul 29, 2014 at 9:45:46 PM

Latest Report: Jul 29, 2014 at 9:00 PM


Visibility: N/A

Pressure: 29.71 "Hg

Humidity: 88%

Dew point: 64 °F

Location of BastiaLocation

Historic Weather in Bastia — Graph

°F

Bastia temperature yesterday

Maximum temperature yesterday: 84 °F (at 12:00 PM)
Minimum temperature yesterday: 68 °F (at 12:00 AM)
Average temperature yesterday: 77 °F

Past Weeks' High & Low Weather Summary

 TemperatureHumidityPressure
High88 °F (Jul 16, 2:30 PM)94% (Jul 14, 11:00 PM)30.09 "Hg (Jul 14, 11:00 PM)
Low63 °F (Jul 15, 5:00 AM)31% (Jul 21, 11:30 AM)29.71 "Hg (Jul 22, 3:30 AM)
Average75 °F68%29.91 "Hg
* Reported Jul 14 8:00 PM — Jul 29 8:30 PM, Bastia, Weather by CustomWeather, © 2014

Note: Actual official high and low records may vary slightly from our data, if they occured in-between our weather recording intervals... More about our weather records

Advertising

Bastia weather history for previous 24 hours

 ConditionsComfort  
Time TempWeatherWind HumidityBarometerVisibility
8:30 PM
Jul 29
70 °FThunderstorms. Broken clouds.8 mph83%29.71 "Hg4 mi
8:00 PM72 °FSprinkles. Broken clouds.12 mph73%29.71 "Hg6 mi
7:30 PM73 °FBroken clouds.9 mph74%29.71 "HgN/A
7:00 PM75 °FSprinkles. Broken clouds.6 mph69%29.74 "HgN/A
6:30 PM75 °FBroken clouds.12 mph65%29.74 "HgN/A
6:00 PM75 °FBroken clouds.3 mph65%29.74 "HgN/A
5:30 PM75 °FBroken clouds.7 mph65%29.74 "HgN/A
5:00 PM75 °FBroken clouds.8 mph65%29.74 "HgN/A
4:30 PM75 °FBroken clouds.8 mph65%29.77 "HgN/A
4:00 PM75 °FBroken clouds.8 mph65%29.77 "HgN/A
3:30 PM75 °FBroken clouds.6 mph65%29.77 "HgN/A
3:00 PM75 °FBroken clouds.6 mph65%29.77 "HgN/A
2:30 PM73 °FLight rain. Broken clouds.No wind69%29.77 "HgN/A
2:00 PM75 °FBroken clouds.7 mph61%29.77 "HgN/A
1:30 PM75 °FBroken clouds.9 mph61%29.77 "HgN/A
1:00 PM77 °FBroken clouds.8 mph57%29.77 "HgN/A
12:30 PM75 °FBroken clouds.9 mph65%29.77 "HgN/A
12:00 PM75 °FBroken clouds.12 mph61%29.77 "HgN/A
11:30 AM75 °FBroken clouds.3 mph65%29.77 "HgN/A
11:00 AM73 °FBroken clouds.6 mph69%29.77 "HgN/A
10:30 AM73 °FBroken clouds.7 mph74%29.77 "HgN/A
10:00 AM73 °FPartly sunny.8 mph78%29.77 "HgN/A
9:30 AM70 °FLight rain. More clouds than sun.3 mph78%29.80 "HgN/A
9:00 AM68 °FLight rain. More clouds than sun.3 mph83%29.80 "HgN/A
8:30 AM68 °FLight rain. Overcast.3 mph83%29.80 "HgN/A
8:00 AM68 °FLight rain. Overcast.2 mph83%29.80 "HgN/A
7:30 AM68 °FOvercast.3 mph83%29.80 "HgN/A
7:00 AM70 °FLight rain. Mostly cloudy.2 mph78%29.77 "HgN/A
6:30 AM70 °FLight rain. Overcast.No wind69%29.80 "HgN/A
6:00 AM72 °FLight rain. Passing clouds.5 mph61%29.80 "HgN/A
4:30 AM72 °FPassing clouds.2 mph73%29.80 "HgN/A
4:00 AM70 °FPassing clouds.5 mph73%29.80 "HgN/A
3:30 AM70 °FMild.5 mph73%29.80 "HgN/A
3:00 AM70 °FMild.2 mph73%29.80 "HgN/A
2:30 AM70 °FClear.3 mph78%29.80 "HgN/A
2:00 AM70 °FClear.2 mph78%29.80 "HgN/A
1:30 AM70 °FClear.3 mph73%29.80 "HgN/A
1:00 AM70 °FClear.3 mph78%29.80 "HgN/A
12:30 AM70 °FPartly cloudy.3 mph78%29.83 "HgN/A
12:00 AM72 °FPartly cloudy.3 mph78%29.83 "HgN/A
11:30 PM
Jul 28
73 °FPartly cloudy.5 mph74%29.83 "HgN/A
11:00 PM73 °FPassing clouds.3 mph74%29.83 "HgN/A
10:00 PM73 °FPassing clouds.3 mph83%29.83 "HgN/A
9:30 PM75 °FPartly sunny.5 mph78%29.83 "HgN/A
9:00 PM75 °FMore clouds than sun.No wind78%29.83 "HgN/A
Weather by CustomWeather, © 2014

See weather overviewHow to use our weather pages